Location: Clandonald
(53.5720°N, 110.7141°W)
Time: 17:57:35
(UTC+00:00)

Envisat - Pass Details

Date: 28 October 2019
Orbit: 764 x 766 km, 98.1° (Epoch: 17 November)

Event Time Altitude Azimuth Distance (km) Brightness Sun altitude
Rises 12:55:02 0° 26° (NNE) 3,245 6.5 -12.2°
Reaches altitude 10° 12:58:20 10° 49° (NE) 2,313 6.1 -11.8°
Maximum altitude 13:01:20 16° 85° (E) 1,946 6.4 -11.3°
Drops below altitude 10° 13:04:20 10° 122° (ESE) 2,302 6.6 -10.9°
Sets 13:07:35 0° 144° (SE) 3,222 6.9 -10.4°
